Regional Weather Roundup
Issued by NWS Burlington, VT

Home | Current Version | Previous Version | Text Only | Print | Product List | Glossary On
Versions: 1 2 3 4 5 6 7 8 9 10 11 12 13 14 15 16 17 18 19 20 21 22 23 24 25 26 27 28 29 30 31 32 33 34 35 36 37 38 39 40 41 42 43 44 45 46 47 48 49 50
000
ASUS41 KBTV 261030
RWRBTV
VERMONT REGIONAL WEATHER ROUNDUP
NATIONAL WEATHER SERVICE BURLINGTON VT
600 AM EDT THU MAY 26 2016

NOTE: "FAIR" INDICATES FEW OR NO CLOUDS BELOW 12,000 FEET WITH NO
SIGNIFICANT WEATHER AND/OR OBSTRUCTIONS TO VISIBILITY.

* THESE REPORTS ARE NOT UNDER NWS QUALITY CONTROL AND/OR DO NOT
  REPORT WEATHER SUCH AS PRECIPITATION AND FOG.

VTZ001>019-261100-
_____VERMONT_____


CITY           SKY/WX    TMP DP  RH WIND       PRES   REMARKS
BURLINGTON     MOCLDY    56  52  86 CALM      30.12R
MONTPELIER     FAIR      52  50  93 CALM      30.16R FOG
MORRISVILLE    FAIR      51  49  92 CALM      30.15R
ST. JOHNSBURY*   N/A     52  50  93 MISG      30.12R
LYNDONVILLE*   FOG       49  48  96 NE5       30.15R VSB<1/4
MIDDLEBURY*    FAIR      55  55 100 CALM      30.13R
RUTLAND*       FAIR      54  51  90 SE7       30.13R
SPRINGFIELD    FAIR      52  50  93 CALM      30.12R
HIGHGATE*      FAIR      52  50  95 CALM      30.13R
NEWPORT*       FAIR      52  49  92 CALM      30.14S
BENNINGTON     FAIR      52  51  97 S5        30.11R FOG
GALLUP MILLS*    N/A     45 N/A N/A MISG        N/A
UNION VILLAGE*   N/A     54 N/A N/A MISG        N/A
MT. MANSFIELD*   N/A     52 N/A N/A N16         N/A

_____LAKE CHAMPLAIN_____


CITY           SKY/WX    TMP DP  RH WIND       PRES   REMARKS
COLCHESTER RF*   N/A     57  55  94 NW6         N/A
DIAMOND ISL*     N/A     64  52  63 NW9         N/A

$$

NYZ007-026>031-035-052-083-087-261100-
_____NORTHERN NEW YORK_____


CITY           SKY/WX    TMP DP  RH WIND       PRES   REMARKS
PLATTSBURGH    CLOUDY    57  50  77 NW5       30.12R
SARANAC LAKE   MOCLDY    47  44  90 CALM      30.12R
MASSENA        PTCLDY    54  50  86 NE3       30.12R
OGDENSBURG*    CLEAR     55  54  94 CALM      30.10R
STARK FALLS*     N/A    127 N/A N/A E2          N/A
WATERTOWN      PTCLDY    55  53  93 E6        30.08R
FT DRUM        PTCLDY    56  53  88 E6        30.08R
ALBANY         MOCLDY    59  54  83 NE3       30.10R
GLENS FALLS    PTCLDY    54  52  93 CALM      30.11R

$$
NHZ002-005-011-261100-
_____NEW HAMPSHIRE_____


CITY           SKY/WX    TMP DP  RH WIND       PRES   REMARKS
LEBANON        PTCLDY    54  52  93 CALM      30.11R FOG
KEENE          CLEAR     52  48  87 CALM      30.13R
MT WASHINGTON  PTCLDY    43  25  49 W46         N/A  WCI  30
PLYMOUTH       FAIR      57  56  97 W3        30.10R
WHITEFIELD     CLEAR     48  46  93 CALM      30.14R FOG

$$

_____REGIONAL QUEBEC LOCATIONS_____


CITY           SKY/WX    TMP DP  RH WIND       PRES   REMARKS
MONTREAL       MOCLDY    55  46  71 N6        30.13R
QUEBEC CITY    PTCLDY    52  45  76 N5        30.09R
SHERBROOKE     CLEAR     48  46  93 VRB2      30.12R

_____REGIONAL ONTARIO LOCATIONS_____


CITY           SKY/WX    TMP DP  RH WIND       PRES   REMARKS
OTTAWA         PTCLDY    54  50  87 NE9       30.12R

______KEY______
VSB  - VISIBILITY IN MILES
WCI  - WIND CHILL INDEX
HX   - HEAT INDEX
$$
NNNN




USA.gov is the U.S. government's official web portal to all federal, state and local government web resources and services.